• In Belarus
  • List of Countries
  • For 7 days
  • Water Temperature
  • Satellite Maps
  • Weather Map
  • Weather Widgets
  • user-avatar
    Login

    Hourly Weather Yeghegnadzor

    Today, 20 October, Saturday

    Time Temperature Precipitation Wind Pressure Humidity
    00:00 +13°C° 0 mm 1 mps 655 mmHg 47%
    01:00 +13°C° 0 mm 1 mps 655 mmHg 46%
    02:00 +12°C° 0 mm 1 mps 655 mmHg 46%
    03:00 +12°C° 0 mm 1 mps 655 mmHg 45%
    04:00 +12°C° 0 mm 1 mps 655 mmHg 47%
    05:00 +12°C° 0 mm 1 mps 654 mmHg 50%
    06:00 +11°C° 0 mm 1 mps 654 mmHg 52%
    07:00 +13°C° 0 mm 1 mps 655 mmHg 48%
    08:00 +15°C° 0 mm 1 mps 655 mmHg 45%
    09:00 +18°C° 0 mm 1 mps 656 mmHg 42%
    10:00 +18°C° 0 mm 2 mps 656 mmHg 40%
    11:00 +19°C° 0 mm 2 mps 656 mmHg 38%
    12:00 +20°C° 0 mm 2 mps 656 mmHg 36%
    13:00 +20°C° 0 mm 2 mps 655 mmHg 36%
    14:00 +20°C° 0 mm 2 mps 655 mmHg 35%
    15:00 +20°C° 0 mm 2 mps 655 mmHg 35%
    16:00 +20°C° 0 mm 1 mps 654 mmHg 39%
    17:00 +18°C° 0 mm 1 mps 654 mmHg 44%
    18:00 +16°C° 0 mm 1 mps 654 mmHg 48%
    19:00 +16°C° 0 mm 1 mps 654 mmHg 48%
    20:00 +15°C° 0 mm 1 mps 654 mmHg 49%
    21:00 +15°C° 0 mm 1 mps 654 mmHg 49%
    22:00 +14°C° 0 mm 1 mps 654 mmHg 51%
    23:00 +14°C° 0 mm 1 mps 653 mmHg 52%

    Tomorrow, 21 October, Sunday

    Time Temperature Precipitation Wind Pressure Humidity
    00:00 +14°C° 0 mm 1 mps 653 mmHg 54%
    01:00 +13°C° 0 mm 1 mps 653 mmHg 56%
    02:00 +13°C° 0 mm 1 mps 653 mmHg 58%
    03:00 +13°C° 0 mm 1 mps 653 mmHg 60%
    04:00 +13°C° 0 mm 1 mps 653 mmHg 61%
    05:00 +12°C° 0 mm 1 mps 653 mmHg 62%
    06:00 +12°C° 0 mm 1 mps 653 mmHg 63%
    07:00 +14°C° 0 mm 1 mps 653 mmHg 56%
    08:00 +16°C° 0 mm 1 mps 654 mmHg 50%
    09:00 +19°C° 0 mm 1 mps 655 mmHg 43%
    10:00 +19°C° 0 mm 2 mps 655 mmHg 41%
    11:00 +20°C° 0 mm 2 mps 655 mmHg 38%
    12:00 +21°C° 0 mm 2 mps 655 mmHg 36%
    13:00 +20°C° 0 mm 2 mps 654 mmHg 37%
    14:00 +20°C° 0 mm 3 mps 654 mmHg 37%
    15:00 +20°C° 0 mm 3 mps 654 mmHg 38%
    16:00 +19°C° 0 mm 2 mps 653 mmHg 42%
    17:00 +18°C° 0 mm 2 mps 653 mmHg 46%
    18:00 +16°C° 0 mm 2 mps 653 mmHg 51%
    19:00 +16°C° 0 mm 1 mps 653 mmHg 51%
    20:00 +15°C° 0 mm 1 mps 653 mmHg 52%
    21:00 +15°C° 0 mm 1 mps 653 mmHg 52%
    22:00 +15°C° 0 mm 1 mps 653 mmHg 54%
    23:00 +14°C° 0 mm 1 mps 653 mmHg 55%

    Day after tomorrow, 22 October, Monday

    Time Temperature Precipitation Wind Pressure Humidity
    00:00 +14°C° 0 mm 1 mps 653 mmHg 57%
    01:00 +14°C° 0 mm 1 mps 653 mmHg 59%
    02:00 +14°C° 0 mm 1 mps 653 mmHg 61%
    03:00 +13°C° 0 mm 1 mps 653 mmHg 63%
    04:00 +13°C° 0 mm 1 mps 653 mmHg 66%
    05:00 +13°C° 0 mm 1 mps 653 mmHg 68%
    06:00 +12°C° 0 mm 1 mps 653 mmHg 70%
    07:00 +14°C° 0 mm 1 mps 654 mmHg 64%
    08:00 +16°C° 0 mm 1 mps 654 mmHg 59%
    09:00 +17°C° 0 mm 2 mps 655 mmHg 54%
    10:00 +18°C° 0 mm 2 mps 655 mmHg 50%
    11:00 +19°C° 0 mm 2 mps 655 mmHg 47%
    12:00 +20°C° 0 mm 2 mps 655 mmHg 44%
    13:00 +20°C° 0 mm 2 mps 654 mmHg 43%
    14:00 +20°C° 0 mm 2 mps 654 mmHg 42%
    15:00 +20°C° 0 mm 2 mps 654 mmHg 42%
    16:00 +19°C° 0 mm 2 mps 654 mmHg 46%
    17:00 +18°C° 0 mm 1 mps 654 mmHg 50%
    18:00 +16°C° 0 mm 1 mps 653 mmHg 55%
    19:00 +16°C° 0 mm 1 mps 654 mmHg 56%
    20:00 +15°C° 0 mm 1 mps 654 mmHg 57%
    21:00 +15°C° 0 mm 1 mps 654 mmHg 58%
    22:00 +14°C° 0 mm 1 mps 654 mmHg 59%
    23:00 +14°C° 0 mm 1 mps 654 mmHg 59%

    23 October, Tuesday

    Time Temperature Precipitation Wind Pressure Humidity
    00:00 +14°C° 0 mm 1 mps 654 mmHg 60%
    01:00 +14°C° 0 mm 1 mps 654 mmHg 61%
    02:00 +13°C° 0 mm 1 mps 654 mmHg 63%
    03:00 +13°C° 0 mm 1 mps 654 mmHg 64%
    04:00 +13°C° 0 mm 1 mps 654 mmHg 67%
    05:00 +12°C° 0 mm 1 mps 654 mmHg 69%
    06:00 +12°C° 0 mm 1 mps 654 mmHg 71%
    07:00 +14°C° 0 mm 1 mps 655 mmHg 65%
    08:00 +15°C° 0 mm 2 mps 655 mmHg 59%
    09:00 +17°C° 0 mm 2 mps 656 mmHg 53%
    10:00 +18°C° 0 mm 2 mps 656 mmHg 50%
    11:00 +19°C° 0 mm 2 mps 656 mmHg 46%
    12:00 +20°C° 0 mm 3 mps 656 mmHg 42%
    13:00 +20°C° 0 mm 2 mps 655 mmHg 41%
    14:00 +20°C° 0 mm 2 mps 655 mmHg 40%
    15:00 +20°C° 0 mm 2 mps 654 mmHg 39%
    16:00 +18°C° 0 mm 2 mps 654 mmHg 44%
    17:00 +17°C° 0 mm 2 mps 654 mmHg 49%
    18:00 +16°C° 0 mm 1 mps 654 mmHg 53%
    19:00 +15°C° 0 mm 1 mps 654 mmHg 55%
    20:00 +15°C° 0 mm 2 mps 654 mmHg 57%
    21:00 +14°C° 0 mm 2 mps 654 mmHg 58%
    22:00 +14°C° 0 mm 2 mps 654 mmHg 60%
    23:00 +13°C° 0 mm 2 mps 654 mmHg 62%

    24 October, Wednesday

    Time Temperature Precipitation Wind Pressure Humidity
    00:00 +13°C° 0 mm 2 mps 653 mmHg 65%
    01:00 +13°C° 0 mm 2 mps 653 mmHg 65%
    02:00 +12°C° 0 mm 2 mps 653 mmHg 66%
    03:00 +12°C° 0 mm 2 mps 653 mmHg 67%
    04:00 +12°C° 0 mm 2 mps 653 mmHg 67%
    05:00 +12°C° 0 mm 2 mps 653 mmHg 68%
    06:00 +12°C° 0 mm 2 mps 653 mmHg 68%
    07:00 +13°C° 0 mm 2 mps 653 mmHg 62%
    08:00 +15°C° 0 mm 2 mps 653 mmHg 56%
    09:00 +16°C° 0 mm 2 mps 654 mmHg 51%
    10:00 +17°C° 0 mm 3 mps 654 mmHg 48%
    11:00 +18°C° 0 mm 3 mps 653 mmHg 45%
    12:00 +19°C° 0 mm 3 mps 653 mmHg 43%
    13:00 +19°C° 0 mm 3 mps 652 mmHg 42%
    14:00 +20°C° 0 mm 3 mps 652 mmHg 41%
    15:00 +20°C° 0 mm 3 mps 651 mmHg 40%
    16:00 +19°C° 0 mm 3 mps 651 mmHg 43%
    17:00 +18°C° 0 mm 3 mps 651 mmHg 46%
    18:00 +16°C° 0 mm 2 mps 651 mmHg 50%
    19:00 +16°C° 0 mm 3 mps 651 mmHg 51%
    20:00 +16°C° 0 mm 3 mps 650 mmHg 53%
    21:00 +16°C° 0 mm 3 mps 650 mmHg 54%
    22:00 +14°C° 0 mm 3 mps 650 mmHg 57%
    23:00 +14°C° 0 mm 3 mps 649 mmHg 60%

    25 October, Thursday

    Time Temperature Precipitation Wind Pressure Humidity
    00:00 +14°C° 0 mm 3 mps 648 mmHg 63%
    01:00 +13°C° 0 mm 3 mps 648 mmHg 63%
    02:00 +13°C° 0 mm 3 mps 648 mmHg 64%
    03:00 +13°C° 0 mm 3 mps 647 mmHg 64%
    04:00 +13°C° 0 mm 3 mps 647 mmHg 65%
    05:00 +13°C° 0 mm 3 mps 647 mmHg 65%
    06:00 +12°C° 0 mm 3 mps 646 mmHg 66%
    07:00 +13°C° 0.1 mm 4 mps 647 mmHg 65%
    08:00 +14°C° 0.1 mm 4 mps 647 mmHg 65%
    09:00 +15°C° 0.1 mm 5 mps 647 mmHg 65%
    10:00 +15°C° 0.3 mm 4 mps 647 mmHg 67%
    11:00 +15°C° 0.3 mm 4 mps 647 mmHg 68%
    12:00 +15°C° 0.3 mm 4 mps 646 mmHg 70%
    13:00 +17°C° 0 mm 4 mps 646 mmHg 64%
    14:00 +16°C° 0 mm 5 mps 646 mmHg 58%
    15:00 +17°C° 0 mm 5 mps 646 mmHg 51%
    16:00 +16°C° 0 mm 5 mps 645 mmHg 55%
    17:00 +15°C° 0 mm 4 mps 645 mmHg 59%
    18:00 +14°C° 0 mm 4 mps 645 mmHg 63%
    19:00 +14°C° 0 mm 4 mps 645 mmHg 65%
    20:00 +13°C° 0 mm 4 mps 645 mmHg 67%
    21:00 +13°C° 0 mm 4 mps 645 mmHg 70%
    22:00 +13°C° 0 mm 4 mps 645 mmHg 69%
    23:00 +12°C° 0 mm 4 mps 645 mmHg 69%
    Show more